Location: Home
(42.5358°N, 72.7383°W)
Time: 20:14:37
(UTC-05:00)

Explorer 7 - Pass Details

Date: 05 December 2021
Orbit: 483 x 674 km, 50.3° (Epoch: 23 January)

Event Time Altitude Azimuth Distance (km) Brightness Sun altitude
Rises 08:26:48 0° 294° (WNW) 2,725 9.8 11.0°
Reaches altitude 10° 08:29:21 10° 307° (NW) 1,795 8.9 11.4°
Maximum altitude 08:32:52 28° 7° (N) 1,007 7.9 11.8°
Drops below altitude 10° 08:36:14 10° 67° (ENE) 1,713 9.7 12.2°
Sets 08:38:37 0° 80° (E) 2,574 10.7 12.5°
